Tracking 28356 objects as of 8-Dec-2023
HD Live streaming from Space Station
objects crossing your sky now

STARLINK-5759

Track STARLINK-5759 now!
10-day predictions
STARLINK-5759 is classified as:


NORAD ID: 55592
Int'l Code: 2023-020Z
Perigee: 565.3 km
Apogee: 567.1 km
Inclination: 43.0 °
Period: 95.8 minutes
Semi major axis: 6937 km
RCS: Unknown
Launch date: February 12, 2023
Source: United States (US)
Launch site: AIR FORCE EASTERN TEST RANGE (AFETR)
Your satellite tracking list
Your tracking list is empty




NASA's NSSDC Master Catalog

Two Line Element Set (TLE):
1 55592U 23020Z   23341.82948088  .00003741  00000-0  29184-3 0  9995
2 55592  43.0029 155.5040 0001294 271.4468  88.6226 15.02536969 45146
Source of the keplerian elements: AFSPC